Time,TemperatureF,DewpointF,PressureIn,WindDirection,WindDirectionDegrees,WindSpeedMPH,WindSpeedGustMPH,Humidity,HourlyPrecipIn,Conditions,Clouds,dailyrainin,SoftwareType,DateUTC
2014-01-20 00:01:00,38.2,27.1,29.72,SSW,205,12.0,13.0,64,0.00,,,0.03,Wunderground v.1.15,2014-01-20 05:01:00,
2014-01-20 00:02:00,38.1,27.0,29.72,SSW,202,12.0,20.0,64,0.00,,,0.03,Wunderground v.1.15,2014-01-20 05:02:00,
2014-01-20 00:03:00,38.0,27.3,29.72,SSW,207,11.0,20.0,65,0.00,,,0.03,Wunderground v.1.15,2014-01-20 05:03:00,
2014-01-20 00:06:00,38.0,27.3,29.72,SSW,205,11.0,20.0,65,0.00,,,0.03,Wunderground v.1.15,2014-01-20 05:06:00,
2014-01-20 00:10:00,38.3,27.6,29.72,SW,220,12.0,20.0,65,0.00,,,0.00,Wunderground v.1.15,2014-01-20 05:10:00,
2014-01-20 00:11:00,38.3,27.6,29.72,SSW,205,12.0,20.0,65,0.00,,,0.00,Wunderground v.1.15,2014-01-20 05:11:00,
2014-01-20 00:17:00,38.3,27.6,29.72,SW,215,12.0,20.0,65,0.00,,,0.00,Wunderground v.1.15,2014-01-20 05:17:00,
2014-01-20 00:22:00,38.3,27.6,29.72,SSW,202,11.0,20.0,65,0.00,,,0.00,Wunderground v.1.15,2014-01-20 05:22:00,
2014-01-20 00:28:00,38.5,27.7,29.71,SW,228,12.0,20.0,65,0.00,,,0.00,Wunderground v.1.15,2014-01-20 05:28:00,
2014-01-20 00:35:00,38.3,27.6,29.71,SSW,209,10.0,20.0,65,0.00,,,0.00,Wunderground v.1.15,2014-01-20 05:35:00,
2014-01-20 00:41:00,38.7,27.6,29.71,SW,234,10.0,20.0,64,0.00,,,0.00,Wunderground v.1.15,2014-01-20 05:41:00,
2014-01-20 00:46:00,39.5,27.9,29.70,WSW,242,13.0,20.0,63,0.00,,,0.00,Wunderground v.1.15,2014-01-20 05:46:00,
2014-01-20 00:52:00,39.4,27.8,29.70,SW,214,14.0,20.0,63,0.00,,,0.00,Wunderground v.1.15,2014-01-20 05:52:00,
2014-01-20 00:58:00,39.3,27.7,29.69,SSW,192,11.0,20.0,63,0.00,,,0.00,Wunderground v.1.15,2014-01-20 05:58:00,
2014-01-20 01:04:00,39.3,28.1,29.69,WSW,254,11.0,20.0,64,0.00,,,0.00,Wunderground v.1.15,2014-01-20 06:04:00,
2014-01-20 01:10:00,39.2,28.0,29.69,SSW,203,10.0,10.0,64,0.00,,,0.00,Wunderground v.1.15,2014-01-20 06:10:00,
2014-01-20 01:16:00,39.3,27.7,29.69,South,175,10.0,20.0,63,0.00,,,0.00,Wunderground v.1.15,2014-01-20 06:16:00,
2014-01-20 01:22:00,39.3,28.5,29.69,SSW,200,10.0,20.0,65,0.00,,,0.00,Wunderground v.1.15,2014-01-20 06:22:00,
2014-01-20 01:27:00,39.5,28.3,29.69,WSW,252,10.0,20.0,64,0.00,,,0.00,Wunderground v.1.15,2014-01-20 06:27:00,
2014-01-20 01:33:00,39.9,28.3,29.69,SSW,201,11.0,20.0,63,0.00,,,0.00,Wunderground v.1.15,2014-01-20 06:33:00,
2014-01-20 01:39:00,39.9,28.3,29.69,WSW,240,10.0,20.0,63,0.00,,,0.00,Wunderground v.1.15,2014-01-20 06:39:00,
2014-01-20 01:45:00,39.9,28.3,29.68,SSW,210,10.0,20.0,63,0.00,,,0.00,Wunderground v.1.15,2014-01-20 06:45:00,
2014-01-20 01:50:00,39.8,28.2,29.68,West,259,10.0,20.0,63,0.00,,,0.00,Wunderground v.1.15,2014-01-20 06:50:00,
2014-01-20 01:56:00,39.9,28.3,29.69,SW,229,10.0,20.0,63,0.00,,,0.00,Wunderground v.1.15,2014-01-20 06:56:00,
2014-01-20 02:02:00,39.9,28.3,29.68,SSW,194,9.0,20.0,63,0.00,,,0.00,Wunderground v.1.15,2014-01-20 07:02:00,
2014-01-20 02:08:00,39.9,28.3,29.68,SW,221,10.0,20.0,63,0.00,,,0.00,Wunderground v.1.15,2014-01-20 07:08:00,
2014-01-20 02:14:00,39.5,28.3,29.68,SSW,208,8.0,20.0,64,0.00,,,0.00,Wunderground v.1.15,2014-01-20 07:14:00,
2014-01-20 02:20:00,39.7,28.1,29.68,WSW,251,9.0,9.0,63,0.00,,,0.00,Wunderground v.1.15,2014-01-20 07:20:00,
2014-01-20 02:26:00,39.7,28.5,29.69,SW,234,9.0,20.0,64,0.00,,,0.00,Wunderground v.1.15,2014-01-20 07:26:00,
2014-01-20 02:31:00,39.5,28.7,29.69,WSW,247,9.0,20.0,65,0.00,,,0.00,Wunderground v.1.15,2014-01-20 07:31:00,
2014-01-20 02:37:00,39.7,28.5,29.69,WSW,253,9.0,20.0,64,0.00,,,0.00,Wunderground v.1.15,2014-01-20 07:37:00,
2014-01-20 02:43:00,40.1,28.5,29.69,WSW,237,10.0,20.0,63,0.00,,,0.00,Wunderground v.1.15,2014-01-20 07:43:00,
2014-01-20 02:49:00,40.5,28.9,29.69,WSW,245,13.0,20.0,63,0.00,,,0.00,Wunderground v.1.15,2014-01-20 07:49:00,
2014-01-20 02:54:00,40.5,28.9,29.69,WSW,247,16.0,21.0,63,0.00,,,0.00,Wunderground v.1.15,2014-01-20 07:54:00,
2014-01-20 03:00:00,40.3,28.7,29.69,WSW,245,17.0,17.0,63,0.00,,,0.00,Wunderground v.1.15,2014-01-20 08:00:00,
2014-01-20 03:06:00,40.1,28.9,29.69,SW,217,16.0,20.0,64,0.00,,,0.00,Wunderground v.1.15,2014-01-20 08:06:00,
2014-01-20 03:12:00,39.8,28.6,29.70,WSW,238,16.0,20.0,64,0.00,,,0.00,Wunderground v.1.15,2014-01-20 08:12:00,
2014-01-20 03:18:00,39.9,28.7,29.70,WSW,244,15.0,20.0,64,0.00,,,0.00,Wunderground v.1.15,2014-01-20 08:18:00,
2014-01-20 03:24:00,39.8,28.6,29.70,WSW,243,15.0,20.0,64,0.00,,,0.00,Wunderground v.1.15,2014-01-20 08:24:00,
2014-01-20 03:30:00,39.4,28.6,29.70,WSW,248,15.0,15.0,65,0.00,,,0.00,Wunderground v.1.15,2014-01-20 08:30:00,
2014-01-20 03:35:00,39.2,28.8,29.70,WSW,248,14.0,20.0,66,0.00,,,0.00,Wunderground v.1.15,2014-01-20 08:35:00,
2014-01-20 03:41:00,39.3,28.9,29.70,WSW,241,15.0,20.0,66,0.00,,,0.00,Wunderground v.1.15,2014-01-20 08:41:00,
2014-01-20 03:47:00,39.0,29.0,29.71,WSW,250,15.0,20.0,67,0.00,,,0.00,Wunderground v.1.15,2014-01-20 08:47:00,
2014-01-20 03:53:00,38.5,28.5,29.71,SW,226,14.0,20.0,67,0.00,,,0.00,Wunderground v.1.15,2014-01-20 08:53:00,
2014-01-20 03:58:00,38.3,28.7,29.71,SW,219,13.0,20.0,68,0.00,,,0.00,Wunderground v.1.15,2014-01-20 08:58:00,
2014-01-20 04:04:00,38.1,28.5,29.71,WSW,252,13.0,20.0,68,0.00,,,0.00,Wunderground v.1.15,2014-01-20 09:04:00,
2014-01-20 04:09:00,37.9,28.6,29.71,WSW,237,13.0,20.0,69,0.00,,,0.00,Wunderground v.1.15,2014-01-20 09:09:00,
2014-01-20 04:15:00,37.8,28.5,29.71,SW,218,12.0,20.0,69,0.00,,,0.00,Wunderground v.1.15,2014-01-20 09:15:00,
2014-01-20 04:21:00,37.7,28.4,29.71,WSW,244,12.0,14.0,69,0.00,,,0.00,Wunderground v.1.15,2014-01-20 09:21:00,
2014-01-20 04:26:00,37.5,28.2,29.71,SW,236,12.0,20.0,69,0.00,,,0.00,Wunderground v.1.15,2014-01-20 09:26:00,
2014-01-20 04:32:00,37.4,28.5,29.71,WSW,246,12.0,20.0,70,0.00,,,0.00,Wunderground v.1.15,2014-01-20 09:32:00,
2014-01-20 04:38:00,37.3,28.4,29.71,SW,235,12.0,20.0,70,0.00,,,0.00,Wunderground v.1.15,2014-01-20 09:38:00,
2014-01-20 04:44:00,37.0,28.1,29.72,SW,235,11.0,20.0,70,0.00,,,0.00,Wunderground v.1.15,2014-01-20 09:44:00,
2014-01-20 04:49:00,36.6,28.1,29.72,WSW,240,9.0,20.0,71,0.00,,,0.00,Wunderground v.1.15,2014-01-20 09:49:00,
2014-01-20 04:55:00,36.5,28.3,29.72,WSW,243,9.0,20.0,72,0.00,,,0.00,Wunderground v.1.15,2014-01-20 09:55:00,
2014-01-20 05:00:00,36.4,28.2,29.72,SW,227,9.0,11.0,72,0.00,,,0.00,Wunderground v.1.15,2014-01-20 10:00:00,
2014-01-20 05:06:00,36.1,27.9,29.73,WSW,251,9.0,11.0,72,0.00,,,0.00,Wunderground v.1.15,2014-01-20 10:06:00,
2014-01-20 05:12:00,35.6,27.8,29.73,WSW,248,8.0,11.0,73,0.00,,,0.00,Wunderground v.1.15,2014-01-20 10:12:00,
2014-01-20 05:18:00,35.5,27.7,29.74,SW,236,7.0,11.0,73,0.00,,,0.00,Wunderground v.1.15,2014-01-20 10:18:00,
2014-01-20 05:23:00,35.6,27.8,29.74,WSW,240,8.0,10.0,73,0.00,,,0.00,Wunderground v.1.15,2014-01-20 10:23:00,
2014-01-20 05:29:00,35.6,27.8,29.74,WSW,248,8.0,10.0,73,0.00,,,0.00,Wunderground v.1.15,2014-01-20 10:29:00,
2014-01-20 05:35:00,35.3,27.8,29.74,WSW,255,8.0,17.0,74,0.00,,,0.00,Wunderground v.1.15,2014-01-20 10:35:00,
2014-01-20 05:41:00,34.9,27.8,29.74,SW,232,7.0,17.0,75,0.00,,,0.00,Wunderground v.1.15,2014-01-20 10:41:00,
2014-01-20 05:46:00,34.7,27.6,29.75,WSW,257,6.0,17.0,75,0.00,,,0.00,Wunderground v.1.15,2014-01-20 10:46:00,
2014-01-20 05:52:00,34.4,27.3,29.75,WSW,245,7.0,17.0,75,0.00,,,0.00,Wunderground v.1.15,2014-01-20 10:52:00,
2014-01-20 05:58:00,34.3,27.5,29.75,WSW,251,7.0,17.0,76,0.00,,,0.00,Wunderground v.1.15,2014-01-20 10:58:00,
2014-01-20 06:03:00,34.3,27.5,29.75,WSW,249,7.0,17.0,76,0.00,,,0.00,Wunderground v.1.15,2014-01-20 11:03:00,
2014-01-20 06:09:00,34.4,27.6,29.75,WSW,248,6.0,17.0,76,0.00,,,0.00,Wunderground v.1.15,2014-01-20 11:09:00,
2014-01-20 06:15:00,34.5,27.7,29.76,West,259,7.0,17.0,76,0.00,,,0.00,Wunderground v.1.15,2014-01-20 11:15:00,
2014-01-20 06:21:00,34.6,27.8,29.76,WSW,254,7.0,17.0,76,0.00,,,0.00,Wunderground v.1.15,2014-01-20 11:21:00,
2014-01-20 06:26:00,34.8,28.0,29.76,WSW,257,7.0,17.0,76,0.00,,,0.00,Wunderground v.1.15,2014-01-20 11:26:00,
2014-01-20 06:32:00,34.9,28.1,29.77,West,263,7.0,17.0,76,0.00,,,0.00,Wunderground v.1.15,2014-01-20 11:32:00,
2014-01-20 06:38:00,35.0,28.2,29.77,West,259,7.0,17.0,76,0.00,,,0.00,Wunderground v.1.15,2014-01-20 11:38:00,
2014-01-20 06:44:00,35.3,28.5,29.78,WSW,244,8.0,17.0,76,0.00,,,0.00,Wunderground v.1.15,2014-01-20 11:44:00,
2014-01-20 06:49:00,35.1,28.3,29.78,West,259,8.0,17.0,76,0.00,,,0.00,Wunderground v.1.15,2014-01-20 11:49:00,
2014-01-20 06:55:00,35.1,28.3,29.79,West,261,7.0,17.0,76,0.00,,,0.00,Wunderground v.1.15,2014-01-20 11:55:00,
2014-01-20 07:01:00,34.7,27.9,29.79,West,279,6.0,17.0,76,0.00,,,0.00,Wunderground v.1.15,2014-01-20 12:01:00,
2014-01-20 07:07:00,34.6,28.1,29.80,West,264,6.0,17.0,77,0.00,,,0.00,Wunderground v.1.15,2014-01-20 12:07:00,
2014-01-20 07:14:00,34.1,27.6,29.80,West,268,6.0,17.0,77,0.00,,,0.00,Wunderground v.1.15,2014-01-20 12:14:00,
2014-01-20 07:20:00,33.9,27.8,29.80,West,276,6.0,17.0,78,0.00,,,0.00,Wunderground v.1.15,2014-01-20 12:20:00,
2014-01-20 07:26:00,34.1,28.0,29.80,West,276,6.0,17.0,78,0.00,,,0.00,Wunderground v.1.15,2014-01-20 12:26:00,
2014-01-20 07:32:00,33.7,27.6,29.80,WSW,251,6.0,17.0,78,0.00,,,0.00,Wunderground v.1.15,2014-01-20 12:32:00,
2014-01-20 07:38:00,33.3,27.5,29.81,West,260,5.0,17.0,79,0.00,,,0.00,Wunderground v.1.15,2014-01-20 12:38:00,
2014-01-20 07:43:00,33.4,27.9,29.81,WNW,284,6.0,17.0,80,0.00,,,0.00,Wunderground v.1.15,2014-01-20 12:43:00,
2014-01-20 07:49:00,33.4,27.9,29.82,West,279,7.0,17.0,80,0.00,,,0.00,Wunderground v.1.15,2014-01-20 12:49:00,
2014-01-20 07:55:00,33.3,27.8,29.82,West,269,7.0,17.0,80,0.00,,,0.00,Wunderground v.1.15,2014-01-20 12:55:00,
2014-01-20 08:01:00,33.3,27.8,29.82,West,269,7.0,17.0,80,0.00,,,0.00,Wunderground v.1.15,2014-01-20 13:01:00,
2014-01-20 08:06:00,33.2,28.0,29.83,West,261,6.0,17.0,81,0.00,,,0.00,Wunderground v.1.15,2014-01-20 13:06:00,
2014-01-20 08:12:00,33.0,27.8,29.83,WSW,250,5.0,17.0,81,0.00,,,0.00,Wunderground v.1.15,2014-01-20 13:12:00,
2014-01-20 08:17:00,32.6,27.4,29.83,WSW,239,5.0,17.0,81,0.00,,,0.00,Wunderground v.1.15,2014-01-20 13:17:00,
2014-01-20 08:23:00,32.2,27.0,29.84,WSW,239,5.0,17.0,81,0.00,,,0.00,Wunderground v.1.15,2014-01-20 13:23:00,
2014-01-20 08:28:00,31.9,27.0,29.84,WSW,244,6.0,17.0,82,0.00,,,0.00,Wunderground v.1.15,2014-01-20 13:28:00,
2014-01-20 08:34:00,31.9,27.0,29.84,WSW,257,6.0,17.0,82,0.00,,,0.00,Wunderground v.1.15,2014-01-20 13:34:00,
2014-01-20 08:40:00,31.6,27.0,29.84,WSW,252,5.0,17.0,83,0.00,,,0.00,Wunderground v.1.15,2014-01-20 13:40:00,
2014-01-20 08:46:00,31.6,27.0,29.84,WSW,258,5.0,17.0,83,0.00,,,0.00,Wunderground v.1.15,2014-01-20 13:46:00,
2014-01-20 08:51:00,31.6,27.0,29.84,WSW,250,4.0,17.0,83,0.00,,,0.00,Wunderground v.1.15,2014-01-20 13:51:00,
2014-01-20 08:57:00,31.7,27.1,29.84,WSW,243,4.0,17.0,83,0.00,,,0.00,Wunderground v.1.15,2014-01-20 13:57:00,
2014-01-20 09:03:00,32.1,27.5,29.84,WSW,250,5.0,17.0,83,0.00,,,0.00,Wunderground v.1.15,2014-01-20 14:03:00,
2014-01-20 09:09:00,32.2,27.6,29.84,West,281,5.0,17.0,83,0.00,,,0.00,Wunderground v.1.15,2014-01-20 14:09:00,
2014-01-20 09:14:00,32.9,28.6,29.84,West,277,5.0,17.0,84,0.00,,,0.00,Wunderground v.1.15,2014-01-20 14:14:00,
2014-01-20 09:20:00,33.5,28.9,29.84,West,279,7.0,17.0,83,0.00,,,0.00,Wunderground v.1.15,2014-01-20 14:20:00,
2014-01-20 09:26:00,33.8,28.9,29.85,WNW,286,7.0,17.0,82,0.00,,,0.00,Wunderground v.1.15,2014-01-20 14:26:00,
2014-01-20 09:32:00,34.1,29.2,29.85,West,280,7.0,17.0,82,0.00,,,0.00,Wunderground v.1.15,2014-01-20 14:32:00,
2014-01-20 09:38:00,34.3,29.1,29.85,West,261,6.0,17.0,81,0.00,,,0.00,Wunderground v.1.15,2014-01-20 14:38:00,
2014-01-20 09:44:00,34.4,29.2,29.85,WSW,252,5.0,17.0,81,0.00,,,0.00,Wunderground v.1.15,2014-01-20 14:44:00,
2014-01-20 09:50:00,34.5,29.3,29.85,West,271,4.0,17.0,81,0.00,,,0.00,Wunderground v.1.15,2014-01-20 14:50:00,
2014-01-20 09:55:00,34.5,29.3,29.86,West,276,4.0,17.0,81,0.00,,,0.00,Wunderground v.1.15,2014-01-20 14:55:00,
2014-01-20 10:01:00,34.5,29.3,29.86,West,277,5.0,17.0,81,0.00,,,0.00,Wunderground v.1.15,2014-01-20 15:01:00,
2014-01-20 10:07:00,34.6,29.4,29.87,WNW,286,5.0,17.0,81,0.00,,,0.00,Wunderground v.1.15,2014-01-20 15:07:00,
2014-01-20 10:13:00,34.5,29.6,29.87,West,265,5.0,17.0,82,0.00,,,0.00,Wunderground v.1.15,2014-01-20 15:13:00,
2014-01-20 10:18:00,34.5,29.6,29.88,WSW,249,5.0,17.0,82,0.00,,,0.00,Wunderground v.1.15,2014-01-20 15:18:00,
2014-01-20 10:24:00,34.5,29.6,29.88,WSW,247,5.0,17.0,82,0.00,,,0.00,Wunderground v.1.15,2014-01-20 15:24:00,
2014-01-20 10:30:00,34.4,29.5,29.88,WSW,258,5.0,5.0,82,0.00,,,0.00,Wunderground v.1.15,2014-01-20 15:30:00,
2014-01-20 10:36:00,34.5,29.6,29.89,WSW,246,4.0,17.0,82,0.00,,,0.00,Wunderground v.1.15,2014-01-20 15:36:00,
2014-01-20 10:42:00,34.8,29.9,29.89,WSW,250,4.0,17.0,82,0.00,,,0.00,Wunderground v.1.15,2014-01-20 15:42:00,
2014-01-20 10:48:00,35.3,30.4,29.89,WNW,284,5.0,17.0,82,0.00,,,0.00,Wunderground v.1.15,2014-01-20 15:48:00,
2014-01-20 10:54:00,35.5,30.2,29.89,WNW,285,5.0,17.0,81,0.00,,,0.00,Wunderground v.1.15,2014-01-20 15:54:00,
2014-01-20 10:59:00,35.6,30.0,29.89,West,275,6.0,17.0,80,0.00,,,0.00,Wunderground v.1.15,2014-01-20 15:59:00,
2014-01-20 11:05:00,35.7,30.1,29.89,WSW,240,5.0,17.0,80,0.00,,,0.00,Wunderground v.1.15,2014-01-20 16:05:00,
2014-01-20 11:11:00,35.8,30.2,29.89,West,259,5.0,17.0,80,0.00,,,0.00,Wunderground v.1.15,2014-01-20 16:11:00,
2014-01-20 11:17:00,35.7,30.1,29.90,West,273,5.0,17.0,80,0.00,,,0.00,Wunderground v.1.15,2014-01-20 16:17:00,
2014-01-20 11:22:00,35.8,30.2,29.90,WSW,252,6.0,17.0,80,0.00,,,0.00,Wunderground v.1.15,2014-01-20 16:22:00,
2014-01-20 11:28:00,36.1,30.5,29.90,WSW,253,4.0,17.0,80,0.00,,,0.00,Wunderground v.1.15,2014-01-20 16:28:00,
2014-01-20 11:34:00,36.4,30.5,29.90,WSW,246,4.0,17.0,79,0.00,,,0.00,Wunderground v.1.15,2014-01-20 16:34:00,
2014-01-20 11:40:00,36.6,30.7,29.90,SW,232,5.0,17.0,79,0.00,,,0.00,Wunderground v.1.15,2014-01-20 16:40:00,
2014-01-20 11:46:00,36.7,30.5,29.90,WSW,238,5.0,17.0,78,0.00,,,0.00,Wunderground v.1.15,2014-01-20 16:46:00,
2014-01-20 11:52:00,37.0,30.8,29.90,WSW,258,6.0,17.0,78,0.00,,,0.00,Wunderground v.1.15,2014-01-20 16:52:00,
2014-01-20 11:58:00,37.3,30.7,29.90,West,267,6.0,17.0,77,0.00,,,0.00,Wunderground v.1.15,2014-01-20 16:58:00,
2014-01-20 12:04:00,37.4,30.5,29.90,WSW,244,6.0,17.0,76,0.00,,,0.00,Wunderground v.1.15,2014-01-20 17:04:00,
2014-01-20 12:09:00,37.4,30.5,29.90,WSW,244,6.0,17.0,76,0.00,,,0.00,Wunderground v.1.15,2014-01-20 17:09:00,
2014-01-20 12:15:00,37.8,31.2,29.90,WSW,250,5.0,17.0,77,0.00,,,0.00,Wunderground v.1.15,2014-01-20 17:15:00,
2014-01-20 12:20:00,38.0,31.1,29.89,WSW,248,4.0,17.0,76,0.00,,,0.00,Wunderground v.1.15,2014-01-20 17:20:00,
2014-01-20 12:26:00,38.0,31.1,29.89,WSW,247,5.0,17.0,76,0.00,,,0.00,Wunderground v.1.15,2014-01-20 17:26:00,
2014-01-20 12:32:00,38.2,31.0,29.89,SW,236,5.0,17.0,75,0.00,,,0.00,Wunderground v.1.15,2014-01-20 17:32:00,
2014-01-20 12:37:00,38.5,30.9,29.89,WSW,242,5.0,17.0,74,0.00,,,0.00,Wunderground v.1.15,2014-01-20 17:37:00,
2014-01-20 12:43:00,38.5,30.9,29.88,SW,236,5.0,17.0,74,0.00,,,0.00,Wunderground v.1.15,2014-01-20 17:43:00,
2014-01-20 12:49:00,38.2,31.0,29.88,WSW,252,6.0,17.0,75,0.00,,,0.00,Wunderground v.1.15,2014-01-20 17:49:00,
2014-01-20 12:55:00,38.3,30.7,29.88,WSW,242,6.0,17.0,74,0.00,,,0.00,Wunderground v.1.15,2014-01-20 17:55:00,
2014-01-20 13:00:00,38.5,30.9,29.88,WSW,245,6.0,6.0,74,0.00,,,0.00,Wunderground v.1.15,2014-01-20 18:00:00,
2014-01-20 13:06:00,38.9,31.0,29.88,WSW,254,6.0,17.0,73,0.00,,,0.00,Wunderground v.1.15,2014-01-20 18:06:00,
2014-01-20 13:12:00,39.1,31.2,29.87,WSW,238,5.0,17.0,73,0.00,,,0.00,Wunderground v.1.15,2014-01-20 18:12:00,
2014-01-20 13:18:00,39.1,30.8,29.87,WSW,248,6.0,17.0,72,0.00,,,0.00,Wunderground v.1.15,2014-01-20 18:18:00,
2014-01-20 13:23:00,39.2,31.3,29.87,WSW,245,6.0,17.0,73,0.00,,,0.00,Wunderground v.1.15,2014-01-20 18:23:00,
2014-01-20 13:29:00,39.0,30.7,29.87,WSW,245,5.0,17.0,72,0.00,,,0.00,Wunderground v.1.15,2014-01-20 18:29:00,
2014-01-20 13:35:00,39.3,31.0,29.87,WNW,290,6.0,17.0,72,0.00,,,0.00,Wunderground v.1.15,2014-01-20 18:35:00,
2014-01-20 13:40:00,39.1,30.8,29.87,West,269,6.0,6.0,72,0.00,,,0.00,Wunderground v.1.15,2014-01-20 18:40:00,
2014-01-20 13:46:00,39.2,30.9,29.86,WSW,252,5.0,17.0,72,0.00,,,0.00,Wunderground v.1.15,2014-01-20 18:46:00,
2014-01-20 13:52:00,39.4,30.8,29.87,WSW,238,5.0,17.0,71,0.00,,,0.00,Wunderground v.1.15,2014-01-20 18:52:00,
2014-01-20 13:58:00,39.9,31.6,29.87,West,266,5.0,17.0,72,0.00,,,0.00,Wunderground v.1.15,2014-01-20 18:58:00,
2014-01-20 14:04:00,40.1,31.8,29.87,WSW,252,5.0,17.0,72,0.00,,,0.00,Wunderground v.1.15,2014-01-20 19:04:00,
2014-01-20 14:09:00,40.4,31.4,29.87,WNW,286,4.0,17.0,70,0.00,,,0.00,Wunderground v.1.15,2014-01-20 19:09:00,
2014-01-20 14:15:00,40.1,30.7,29.87,WNW,302,5.0,17.0,69,0.00,,,0.00,Wunderground v.1.15,2014-01-20 19:15:00,
2014-01-20 14:21:00,40.1,31.1,29.87,WNW,288,6.0,7.0,70,0.00,,,0.00,Wunderground v.1.15,2014-01-20 19:21:00,
2014-01-20 14:27:00,40.3,30.9,29.86,West,273,4.0,17.0,69,0.00,,,0.00,Wunderground v.1.15,2014-01-20 19:27:00,
2014-01-20 14:33:00,40.4,31.4,29.86,West,281,4.0,17.0,70,0.00,,,0.00,Wunderground v.1.15,2014-01-20 19:33:00,
2014-01-20 14:38:00,40.5,31.5,29.86,NW,312,5.0,17.0,70,0.00,,,0.00,Wunderground v.1.15,2014-01-20 19:38:00,
2014-01-20 14:44:00,40.7,31.7,29.86,WNW,299,3.0,17.0,70,0.00,,,0.00,Wunderground v.1.15,2014-01-20 19:44:00,
2014-01-20 14:50:00,41.1,31.7,29.86,NNW,327,3.0,17.0,69,0.00,,,0.00,Wunderground v.1.15,2014-01-20 19:50:00,
2014-01-20 14:55:00,41.0,31.2,29.86,NW,312,4.0,17.0,68,0.00,,,0.00,Wunderground v.1.15,2014-01-20 19:55:00,
2014-01-20 15:01:00,41.0,31.2,29.87,WNW,282,5.0,17.0,68,0.00,,,0.00,Wunderground v.1.15,2014-01-20 20:01:00,
2014-01-20 15:07:00,40.9,31.9,29.87,WNW,286,5.0,17.0,70,0.00,,,0.00,Wunderground v.1.15,2014-01-20 20:07:00,
2014-01-20 15:13:00,40.9,31.5,29.86,NW,315,5.0,17.0,69,0.00,,,0.00,Wunderground v.1.15,2014-01-20 20:13:00,
2014-01-20 15:18:00,40.8,31.4,29.87,WNW,295,5.0,17.0,69,0.00,,,0.00,Wunderground v.1.15,2014-01-20 20:18:00,
2014-01-20 15:24:00,40.8,31.4,29.87,NW,314,5.0,17.0,69,0.00,,,0.00,Wunderground v.1.15,2014-01-20 20:24:00,
2014-01-20 15:30:00,40.8,31.8,29.87,WNW,296,4.0,17.0,70,0.00,,,0.00,Wunderground v.1.15,2014-01-20 20:30:00,
2014-01-20 15:35:00,40.4,31.4,29.87,WNW,290,6.0,17.0,70,0.00,,,0.00,Wunderground v.1.15,2014-01-20 20:35:00,
2014-01-20 15:40:00,40.2,30.8,29.87,WNW,287,6.0,6.0,69,0.00,,,0.00,Wunderground v.1.15,2014-01-20 20:40:00,
2014-01-20 15:46:00,40.3,31.6,29.87,NW,316,4.0,17.0,71,0.00,,,0.00,Wunderground v.1.15,2014-01-20 20:46:00,
2014-01-20 15:52:00,40.4,31.4,29.87,WNW,284,5.0,17.0,70,0.00,,,0.00,Wunderground v.1.15,2014-01-20 20:52:00,
2014-01-20 15:58:00,40.4,31.7,29.88,NW,318,5.0,17.0,71,0.00,,,0.00,Wunderground v.1.15,2014-01-20 20:58:00,
2014-01-20 16:03:00,40.4,31.4,29.88,NW,317,4.0,17.0,70,0.00,,,0.00,Wunderground v.1.15,2014-01-20 21:03:00,
2014-01-20 16:09:00,40.4,32.4,29.88,NW,314,5.0,17.0,73,0.00,,,0.00,Wunderground v.1.15,2014-01-20 21:09:00,
2014-01-20 16:15:00,40.5,31.8,29.89,NW,316,5.0,17.0,71,0.00,,,0.00,Wunderground v.1.15,2014-01-20 21:15:00,
2014-01-20 16:21:00,40.7,32.0,29.89,North,355,5.0,17.0,71,0.00,,,0.00,Wunderground v.1.15,2014-01-20 21:21:00,
2014-01-20 16:26:00,40.9,31.5,29.89,NW,324,6.0,17.0,69,0.00,,,0.00,Wunderground v.1.15,2014-01-20 21:26:00,
2014-01-20 16:31:00,40.7,31.7,29.89,NNW,330,6.0,17.0,70,0.00,,,0.00,Wunderground v.1.15,2014-01-20 21:31:00,
2014-01-20 16:37:00,40.4,32.1,29.89,NNW,333,6.0,17.0,72,0.00,,,0.00,Wunderground v.1.15,2014-01-20 21:37:00,
2014-01-20 16:42:00,40.1,31.8,29.89,NW,320,6.0,17.0,72,0.00,,,0.00,Wunderground v.1.15,2014-01-20 21:42:00,
2014-01-20 16:48:00,39.5,31.2,29.89,NNW,333,6.0,17.0,72,0.00,,,0.00,Wunderground v.1.15,2014-01-20 21:48:00,
2014-01-20 16:54:00,39.1,31.5,29.89,NNW,348,6.0,17.0,74,0.00,,,0.00,Wunderground v.1.15,2014-01-20 21:54:00,
2014-01-20 16:59:00,38.8,30.9,29.89,North,351,6.0,17.0,73,0.00,,,0.00,Wunderground v.1.15,2014-01-20 21:59:00,
2014-01-20 17:05:00,38.6,31.0,29.89,NNW,330,5.0,17.0,74,0.00,,,0.00,Wunderground v.1.15,2014-01-20 22:05:00,
2014-01-20 17:10:00,38.5,31.3,29.89,NNW,331,5.0,17.0,75,0.00,,,0.00,Wunderground v.1.15,2014-01-20 22:10:00,
2014-01-20 17:16:00,38.3,31.1,29.89,NNW,336,5.0,17.0,75,0.00,,,0.00,Wunderground v.1.15,2014-01-20 22:16:00,
2014-01-20 17:22:00,38.2,31.0,29.89,NNW,337,4.0,17.0,75,0.00,,,0.00,Wunderground v.1.15,2014-01-20 22:22:00,
2014-01-20 17:27:00,38.0,31.1,29.89,NNW,336,3.0,17.0,76,0.00,,,0.00,Wunderground v.1.15,2014-01-20 22:27:00,
2014-01-20 17:33:00,37.9,31.0,29.89,NNW,338,2.0,17.0,76,0.00,,,0.00,Wunderground v.1.15,2014-01-20 22:33:00,
2014-01-20 17:39:00,37.8,30.9,29.89,NNW,343,1.0,17.0,76,0.00,,,0.00,Wunderground v.1.15,2014-01-20 22:39:00,
2014-01-20 17:45:00,37.6,30.7,29.90,NNW,344,1.0,17.0,76,0.00,,,0.00,Wunderground v.1.15,2014-01-20 22:45:00,
2014-01-20 17:51:00,37.5,30.6,29.89,NNW,341,1.0,17.0,76,0.00,,,0.00,Wunderground v.1.15,2014-01-20 22:51:00,
2014-01-20 17:56:00,37.4,30.5,29.89,NNW,341,1.0,17.0,76,0.00,,,0.00,Wunderground v.1.15,2014-01-20 22:56:00,
2014-01-20 18:02:00,37.3,30.7,29.89,NNW,341,1.0,17.0,77,0.00,,,0.00,Wunderground v.1.15,2014-01-20 23:02:00,
2014-01-20 18:08:00,37.0,30.5,29.89,NNW,341,1.0,17.0,77,0.00,,,0.00,Wunderground v.1.15,2014-01-20 23:08:00,
2014-01-20 18:14:00,36.8,30.6,29.90,NNW,342,1.0,17.0,78,0.00,,,0.00,Wunderground v.1.15,2014-01-20 23:14:00,
2014-01-20 18:20:00,36.7,30.2,29.90,NNW,347,1.0,1.0,77,0.00,,,0.00,Wunderground v.1.15,2014-01-20 23:20:00,
2014-01-20 18:26:00,36.7,30.2,29.90,NNW,347,0.0,17.0,77,0.00,,,0.00,Wunderground v.1.15,2014-01-20 23:26:00,
2014-01-20 18:32:00,36.6,30.1,29.90,NNW,347,0.0,17.0,77,0.00,,,0.00,Wunderground v.1.15,2014-01-20 23:32:00,
2014-01-20 18:37:00,36.5,30.0,29.90,NNW,347,0.0,17.0,77,0.00,,,0.00,Wunderground v.1.15,2014-01-20 23:37:00,
2014-01-20 18:42:00,36.4,30.2,29.91,NNW,347,0.0,17.0,78,0.00,,,0.00,Wunderground v.1.15,2014-01-20 23:42:00,
2014-01-20 18:48:00,36.5,30.3,29.91,NNW,347,0.0,17.0,78,0.00,,,0.00,Wunderground v.1.15,2014-01-20 23:48:00,
2014-01-20 18:54:00,36.4,30.2,29.90,NNW,347,0.0,17.0,78,0.00,,,0.00,Wunderground v.1.15,2014-01-20 23:54:00,
2014-01-20 18:59:00,36.4,29.9,29.90,NNW,347,0.0,17.0,77,0.00,,,0.00,Wunderground v.1.15,2014-01-20 23:59:00,
2014-01-20 19:04:00,36.4,29.9,29.90,NNW,347,0.0,17.0,77,0.00,,,0.00,Wunderground v.1.15,2014-01-21 00:04:00,
2014-01-20 19:10:00,36.5,30.0,29.90,NNE,31,1.0,17.0,77,0.00,,,0.00,Wunderground v.1.15,2014-01-21 00:10:00,
2014-01-20 19:16:00,36.3,30.4,29.90,NE,53,2.0,17.0,79,0.00,,,0.00,Wunderground v.1.15,2014-01-21 00:16:00,
2014-01-20 19:22:00,35.9,30.0,29.90,ENE,59,3.0,17.0,79,0.00,,,0.00,Wunderground v.1.15,2014-01-21 00:22:00,
2014-01-20 19:28:00,35.9,30.0,29.90,NE,42,3.0,17.0,79,0.00,,,0.00,Wunderground v.1.15,2014-01-21 00:28:00,
2014-01-20 19:34:00,35.8,30.2,29.89,NE,50,3.0,17.0,80,0.00,,,0.00,Wunderground v.1.15,2014-01-21 00:34:00,
2014-01-20 19:40:00,35.6,30.3,29.89,ENE,61,2.0,2.0,81,0.00,,,0.00,Wunderground v.1.15,2014-01-21 00:40:00,
2014-01-20 19:45:00,35.5,30.2,29.89,ENE,61,2.0,17.0,81,0.00,,,0.00,Wunderground v.1.15,2014-01-21 00:45:00,
2014-01-20 19:50:00,35.4,30.5,29.89,ENE,61,1.0,1.0,82,0.00,,,0.00,Wunderground v.1.15,2014-01-21 00:50:00,
2014-01-20 19:56:00,35.2,30.6,29.89,ENE,61,0.0,17.0,83,0.00,,,0.00,Wunderground v.1.15,2014-01-21 00:56:00,
2014-01-20 20:02:00,35.0,30.4,29.89,ENE,61,1.0,17.0,83,0.00,,,0.00,Wunderground v.1.15,2014-01-21 01:02:00,
2014-01-20 20:08:00,34.9,30.3,29.88,ENE,61,1.0,17.0,83,0.00,,,0.00,Wunderground v.1.15,2014-01-21 01:08:00,
2014-01-20 20:13:00,34.8,30.2,29.89,ENE,61,1.0,17.0,83,0.00,,,0.00,Wunderground v.1.15,2014-01-21 01:13:00,
2014-01-20 20:19:00,34.8,30.2,29.89,ENE,61,0.0,17.0,83,0.00,,,0.00,Wunderground v.1.15,2014-01-21 01:19:00,
2014-01-20 20:25:00,34.8,30.2,29.89,ENE,61,0.0,17.0,83,0.00,,,0.00,Wunderground v.1.15,2014-01-21 01:25:00,
2014-01-20 20:30:00,34.8,30.2,29.90,ENE,61,0.0,17.0,83,0.00,,,0.00,Wunderground v.1.15,2014-01-21 01:30:00,
2014-01-20 20:36:00,34.7,30.1,29.90,ENE,61,0.0,17.0,83,0.00,,,0.00,Wunderground v.1.15,2014-01-21 01:36:00,
2014-01-20 20:42:00,34.7,30.4,29.90,ENE,61,0.0,17.0,84,0.00,,,0.00,Wunderground v.1.15,2014-01-21 01:42:00,
2014-01-20 20:48:00,34.4,30.4,29.89,ENE,61,1.0,17.0,85,0.00,,,0.00,Wunderground v.1.15,2014-01-21 01:48:00,
2014-01-20 20:53:00,34.2,30.2,29.89,ENE,61,0.0,17.0,85,0.00,,,0.00,Wunderground v.1.15,2014-01-21 01:53:00,
2014-01-20 20:59:00,34.2,30.2,29.89,ENE,61,0.0,17.0,85,0.00,,,0.00,Wunderground v.1.15,2014-01-21 01:59:00,
2014-01-20 21:05:00,34.3,30.0,29.89,ENE,61,1.0,17.0,84,0.00,,,0.00,Wunderground v.1.15,2014-01-21 02:05:00,
2014-01-20 21:11:00,34.3,30.0,29.89,ENE,61,0.0,17.0,84,0.00,,,0.00,Wunderground v.1.15,2014-01-21 02:11:00,
2014-01-20 21:17:00,34.3,30.3,29.89,ENE,61,0.0,17.0,85,0.00,,,0.00,Wunderground v.1.15,2014-01-21 02:17:00,
2014-01-20 21:23:00,34.1,30.1,29.89,ENE,61,0.0,17.0,85,0.00,,,0.00,Wunderground v.1.15,2014-01-21 02:23:00,
2014-01-20 21:29:00,34.0,30.0,29.89,ENE,61,0.0,17.0,85,0.00,,,0.00,Wunderground v.1.15,2014-01-21 02:29:00,
2014-01-20 21:34:00,33.9,29.9,29.89,ENE,61,0.0,17.0,85,0.00,,,0.00,Wunderground v.1.15,2014-01-21 02:34:00,
2014-01-20 21:40:00,34.0,30.3,29.89,ENE,61,0.0,17.0,86,0.00,,,0.00,Wunderground v.1.15,2014-01-21 02:40:00,
2014-01-20 21:46:00,33.9,30.2,29.88,ENE,61,1.0,17.0,86,0.00,,,0.00,Wunderground v.1.15,2014-01-21 02:46:00,
2014-01-20 21:52:00,33.9,30.2,29.88,ENE,61,1.0,17.0,86,0.00,,,0.00,Wunderground v.1.15,2014-01-21 02:52:00,
2014-01-20 21:58:00,33.8,30.1,29.88,ENE,61,1.0,17.0,86,0.00,,,0.00,Wunderground v.1.15,2014-01-21 02:58:00,
2014-01-20 22:03:00,33.7,30.0,29.88,ENE,61,1.0,17.0,86,0.00,,,0.00,Wunderground v.1.15,2014-01-21 03:03:00,
2014-01-20 22:09:00,33.7,30.0,29.88,ENE,61,0.0,17.0,86,0.00,,,0.00,Wunderground v.1.15,2014-01-21 03:09:00,
2014-01-20 22:15:00,33.7,30.0,29.88,ENE,61,0.0,17.0,86,0.00,,,0.00,Wunderground v.1.15,2014-01-21 03:15:00,
2014-01-20 22:21:00,33.6,30.1,29.88,ENE,61,1.0,17.0,87,0.00,,,0.00,Wunderground v.1.15,2014-01-21 03:21:00,
2014-01-20 22:27:00,33.5,30.0,29.88,ENE,61,0.0,17.0,87,0.00,,,0.00,Wunderground v.1.15,2014-01-21 03:27:00,
2014-01-20 22:34:00,33.4,29.9,29.88,ENE,61,0.0,17.0,87,0.00,,,0.00,Wunderground v.1.15,2014-01-21 03:34:00,
2014-01-20 22:40:00,33.4,29.9,29.88,ENE,61,1.0,17.0,87,0.00,,,0.00,Wunderground v.1.15,2014-01-21 03:40:00,
2014-01-20 22:41:00,33.4,29.9,29.88,ENE,61,1.0,17.0,87,0.00,,,0.00,Wunderground v.1.15,2014-01-21 03:41:00,
2014-01-20 22:46:00,33.5,30.0,29.88,ENE,61,1.0,17.0,87,0.00,,,0.00,Wunderground v.1.15,2014-01-21 03:46:00,
2014-01-20 22:52:00,33.5,30.0,29.88,ENE,61,1.0,17.0,87,0.00,,,0.00,Wunderground v.1.15,2014-01-21 03:52:00,
2014-01-20 22:58:00,33.4,29.9,29.88,ENE,61,1.0,17.0,87,0.00,,,0.00,Wunderground v.1.15,2014-01-21 03:58:00,
2014-01-20 23:04:00,33.4,29.9,29.88,ENE,61,1.0,17.0,87,0.00,,,0.00,Wunderground v.1.15,2014-01-21 04:04:00,
2014-01-20 23:10:00,33.4,29.9,29.88,NNW,338,1.0,17.0,87,0.00,,,0.00,Wunderground v.1.15,2014-01-21 04:10:00,
2014-01-20 23:16:00,33.3,29.8,29.87,NNW,343,1.0,17.0,87,0.00,,,0.00,Wunderground v.1.15,2014-01-21 04:16:00,
2014-01-20 23:22:00,33.4,29.9,29.87,North,350,1.0,17.0,87,0.00,,,0.00,Wunderground v.1.15,2014-01-21 04:22:00,
2014-01-20 23:27:00,33.3,30.1,29.87,North,350,2.0,17.0,88,0.00,,,0.00,Wunderground v.1.15,2014-01-21 04:27:00,
2014-01-20 23:33:00,33.0,29.8,29.87,North,350,1.0,17.0,88,0.00,,,0.00,Wunderground v.1.15,2014-01-21 04:33:00,
2014-01-20 23:39:00,33.0,29.8,29.86,North,350,0.0,17.0,88,0.00,,,0.00,Wunderground v.1.15,2014-01-21 04:39:00,
2014-01-20 23:45:00,33.0,29.8,29.86,North,350,0.0,17.0,88,0.00,,,0.00,Wunderground v.1.15,2014-01-21 04:45:00,
2014-01-20 23:50:00,33.0,29.8,29.86,North,350,0.0,17.0,88,0.00,,,0.00,Wunderground v.1.15,2014-01-21 04:50:00,
2014-01-20 23:56:00,32.9,29.7,29.86,North,350,0.0,17.0,88,0.00,,,0.00,Wunderground v.1.15,2014-01-21 04:56:00,